HUSKYSAT-1 (HO-107)

Last updated on Tue Apr 11 2023 01:03:08 GMT+0100 (British Summer Time)

1 45119U 19071J 23100.59666950 .12876049 12467-4 44960-3 0 9997 2 45119 51.6129 8.2149 0006761 246.9747 113.0568 16.44056360179702

Satellite not in orbit